Theta_e
314 315 314 310 308 312 305 306 304 308 310 319 322 325 329 331 333 335 335 337 338 341 345 347 350 350 353 352 357 360 359 362
313 314 312 312 313 306 307 299 298 304 305 309 319 323 327 329 332 335 336 337 339 341 343 349 351 352 353 353 357 358 359 360
314 312 311 311 309 309 309 307 301 300 307 317 320 326 326 327 332 335 336 336 338 340 345 349 350 350 352 354 353 356 357 359
310 315 316 315 312 311 305 305 307 305 306 321 324 326 326 326 330 334 339 337 338 341 343 346 349 349 349 351 349 354 356 359
308 312 315 312 314 313 313 312 308 304 306 322 325 326 326 326 329 331 335 340 340 342 343 346 347 352 353 353 352 353 357 356
305 309 313 310 312 314 312 308 308 309 311 316 321 323 326 329 331 332 335 340 342 343 346 348 350 352 354 354 355 357 356 356
313 313 313 312 311 312 311 312 308 310 310 315 322 325 327 330 331 332 334 335 337 342 346 349 351 353 355 356 357 359 359 359
310 312 312 310 312 312 312 313 312 312 312 325 327 328 328 329 331 332 333 334 336 339 343 349 351 353 355 356 358 360 359 360
304 308 309 306 311 312 313 315 314 310 318 325 325 325 326 328 329 330 332 335 337 338 341 348 351 354 355 358 360 360 361 361
305 307 299 310 319 318 315 316 318 320 323 325 326 327 327 328 329 329 331 334 337 339 341 343 349 352 357 358 360 361 361 361
302 302 305 307 313 315 315 314 322 321 323 324 327 327 324 327 328 329 331 334 336 338 340 343 346 352 355 357 359 360 360 361
306 299 297 311 315 320 319 310 323 324 323 323 326 320 322 326 326 328 330 332 335 339 339 341 343 345 350 354 357 358 361 362
305 302 306 315 318 322 307 313 325 327 326 325 323 323 325 327 326 327 329 330 333 336 338 341 343 345 345 351 353 358 360 363
307 303 301 318 318 313 320 324 324 325 325 324 324 324 324 324 324 325 326 328 330 332 337 341 342 345 344 345 352 358 360 360
309 310 316 318 319 324 322 319 320 321 322 322 321 321 322 323 324 325 326 326 328 330 333 339 343 346 345 349 351 351 354 359
309 311 313 315 319 321 321 319 320 321 321 321 320 321 321 322 323 324 326 326 327 328 329 333 340 343 346 348 351 351 352 356
309 312 313 314 316 317 319 320 319 320 320 320 321 321 321 321 323 324 326 327 328 328 328 331 336 339 343 346 349 347 350 352
305 313 313 314 317 318 317 318 319 320 320 322 322 321 322 322 324 324 325 327 328 329 329 330 333 336 340 345 347 344 343 348
313 317 317 317 318 320 319 320 320 320 320 319 321 321 322 321 323 322 325 326 327 328 330 331 332 334 338 343 346 344 344 345
Wind_Speed
8 5 7 8 8 8 10 7 9 4 3 14 4 4 3 7 8 7 7 9 13 15 17 17 16 12 17 14 15 15 15 13
9 4 4 9 6 7 5 4 5 4 4 8 8 6 6 9 10 11 5 10 12 12 13 13 15 15 14 16 16 15 15 13
5 12 3 7 9 7 8 6 9 5 4 9 7 8 7 8 9 10 9 6 9 12 12 13 12 11 12 12 12 13 13 12
13 6 5 10 12 9 7 6 2 7 5 9 9 8 7 7 8 8 7 4 5 9 12 13 13 14 11 10 10 11 11 11
14 13 10 8 8 11 9 7 8 8 2 7 11 9 8 8 9 7 7 4 6 6 7 9 12 12 13 12 12 10 10 12
13 16 8 7 8 10 14 11 9 8 10 9 11 8 8 8 9 7 5 5 4 5 7 8 9 12 12 12 11 11 12 13
13 14 13 13 17 17 13 16 15 14 6 4 8 7 7 7 8 8 7 7 7 3 7 8 9 8 10 10 11 10 10 11
16 16 14 16 16 17 17 17 12 16 10 12 9 6 8 9 9 9 9 8 7 6 3 7 9 10 10 10 10 11 12 12
16 15 9 15 18 19 19 17 13 15 7 7 8 7 8 8 9 10 10 9 9 7 5 5 7 9 11 12 11 12 12 12
9 5 13 2 6 6 9 12 7 3 6 6 5 9 8 9 9 10 11 9 9 9 8 6 6 7 9 11 13 13 12 12
6 10 10 9 5 6 7 3 2 2 3 4 6 11 11 10 7 8 9 9 8 8 9 8 7 6 6 9 11 13 13 13
4 9 8 9 5 4 3 7 5 2 4 6 3 9 11 7 7 8 8 9 11 11 9 8 8 7 7 8 10 13 13 14
9 9 1 6 5 2 10 6 4 5 5 6 5 6 5 3 4 6 8 10 10 11 10 9 7 7 8 8 8 10 11 12
6 8 11 6 3 7 6 4 4 4 5 5 4 2 2 4 5 7 7 9 11 10 11 11 9 8 8 7 7 6 9 11
5 7 4 4 5 2 3 2 3 5 7 7 8 8 7 7 8 8 9 9 9 10 12 11 10 8 10 9 7 8 9 10
5 4 2 8 5 5 4 5 8 10 11 11 13 12 11 10 10 9 10 11 11 11 12 13 12 10 10 8 8 8 9 11
11 13 12 11 7 9 9 10 13 14 15 14 15 16 16 14 13 13 12 11 11 12 12 14 13 14 11 9 9 7 8 3
9 8 9 12 13 8 12 13 11 11 12 14 15 17 18 17 15 15 14 13 12 13 14 15 14 14 14 10 9 6 6 6
12 14 14 12 13 13 11 10 13 15 16 18 18 18 20 20 19 17 16 15 15 14 14 14 15 15 14 12 9 7 8 8
Wind_Direction
201 268 261 132 232 2 288 202 249 74 24 109 77 114 83 53 46 48 144 193 201 191 187 180 189 188 189 192 190 194 197 201
126 201 199 270 3 238 196 273 282 78 269 52 43 79 47 39 27 27 56 176 197 198 200 191 189 191 189 195 195 194 196 197
206 209 293 175 223 223 299 305 312 256 96 74 48 46 33 33 22 22 32 154 185 192 191 193 199 171 193 194 198 198 201 192
273 93 293 274 287 275 255 187 212 308 319 69 55 74 45 30 21 19 33 83 173 193 192 201 197 171 186 189 197 203 198 197
249 175 187 230 210 263 280 296 262 290 90 108 73 74 52 34 9 353 359 93 142 172 195 205 195 205 191 189 193 196 195 196
285 318 334 285 233 232 270 282 291 227 288 324 65 51 42 35 21 9 23 64 92 167 189 210 208 197 198 194 184 188 193 200
273 272 275 277 275 272 249 273 281 303 314 14 78 59 45 31 39 43 26 17 7 264 189 199 201 209 212 204 203 204 205 206
270 267 261 267 261 258 256 252 257 266 273 95 106 89 62 50 42 38 21 13 5 345 274 211 204 198 201 206 205 203 206 210
267 269 280 267 251 247 254 249 247 255 62 141 110 91 56 46 43 33 21 5 356 346 326 305 216 209 203 201 196 196 207 204
278 283 248 339 16 337 286 280 271 269 65 80 119 108 76 52 35 34 19 6 352 342 330 321 307 231 211 200 195 192 201 199
255 242 271 223 76 344 334 203 76 262 101 65 147 141 80 44 29 30 18 1 347 338 338 323 310 308 255 222 212 197 193 199
220 280 271 67 50 347 303 233 72 41 48 25 161 217 78 30 15 15 3 354 349 339 323 329 335 304 279 245 229 227 203 191
235 255 298 48 2 305 240 56 39 6 12 19 22 9 19 354 7 9 357 348 339 332 329 335 325 322 290 281 256 246 230 206
241 268 246 28 224 307 45 78 12 6 3 342 336 318 300 312 324 331 339 338 340 332 326 326 325 312 297 295 304 297 259 227
297 36 73 352 326 34 340 3 11 326 316 312 303 300 307 299 306 309 312 320 323 324 320 311 317 320 308 316 299 293 270 242
304 174 324 329 312 276 258 297 315 306 301 296 292 292 291 290 294 294 293 296 305 304 301 303 304 309 313 315 304 287 271 254
272 268 280 282 301 284 282 292 296 294 285 285 289 288 291 291 293 293 293 287 281 280 282 281 289 296 296 310 307 300 286 261
288 327 300 298 295 286 301 298 295 296 292 290 289 287 288 284 287 289 286 288 286 280 276 275 277 279 289 287 289 291 266 233
286 293 295 294 295 289 288 306 306 304 297 293 289 286 285 285 285 287 283 276 277 276 277 272 269 269 272 269 268 266 270 283